Naples Airport (Florida)

Airport
ICAO code: 
KAPF
IATA Code: 
APF
Summary
ICAO Region: 
NAM
Territory: 
Location: 
Naples, Florida
Serving: 
Naples
Elevation: 
8 ft
Coordinates: 
Aerial View: 
26° 9' 9" N, 81° 46' 32.016" W
Metar
Observation
KAPF 060553Z AUTO 05003KT 9SM CLR 19/18 A3010 RMK AO2 SLP191 T01940183 10233 20194 58007
Station
Naples, Naples Municipal Airport
Date/Time
2021-12-06 05:53:00
Wind direction
50°
Wind speed
03 kts
Lowest cloud amount
n/a
Temperature
19.4°C
Dew point
18.3°C
Humidity
93%
Weather condition
n/a

Naples Airport, formerly known as Naples Municipal Airport, is a public use airport located 4km northeast of the central business district of Naples, Florida, USA.

Climatology

Tropical Savanna climate (Köppen climate classification Aw)

Runways

Designator Length Width Surface Rops
NE/SW 564 30 TURF No/No
14/32 1524 30 ASP Yes/Yes
5/23 1612 46 ASP Yes/Yes
Airport map: 
Aerial View: 

SKYbrary Partners:

Safety knowledge contributed by: